x

Southeast Bering Sea -205nm Wnw Of Dutch Harbor, Ak (46073) Wave Buoy

1:50 - Thu 23rd Oct 2014 All times are UTC.

  • Sig Wave height 9.8ft
  • Swell Direction
  • Peak Period 10s
  • Average Period 8s
  • Wind
    11mph, 13mph gusts
  • Sea Temp 44°f
  • Luft Temp 42°f
  • Sea Pressure 1021.1mb

More Historic Weather Station data

Upgrade to MSW Pro to gain access to the past 30 days of data for over 8000 Wavebouys and Weather Stations around the globe.

Join Pro

Comparision Forecast

View Surf forecast
   
Do 10/23 1:50 10ft 10s 8s 11 13 mph 1021.1mb 44f 42f
12:50 10ft 10s 7s 11 16 mph 1021.4mb 44f 42f
Mi 10/22 11:50 10ft 10s 7s 13 16 mph 1021.9mb 45f 42f
10:50 10.5ft 11s 7s 11 13 mph 1021.8mb 45f 42f
9:50 11ft 11s 8s 13 18 mph 1021.4mb 44f 42f
8:50 11ft 11s 8s 13 18 mph 1021.1mb 44f 41f
7:50 11ft 11s 8s 16 20 mph 1020.6mb 45f 41f
6:50 12.5ft 11s 8s 25 31 mph 1019.8mb 44f 42f
5:50 12ft 11s 7s 22 27 mph 1019.1mb 44f 42f
4:50 13ft 11s 7s 22 31 mph 1018.4mb 45f 41f
3:50 12.5ft 11s 7s 25 31 mph 1017.5mb 45f 42f
2:50 13.5ft 10s 7s 25 29 mph 1017.1mb 45f 41f
1:50 12.5ft 11s 7s 25 31 mph 1016.1mb 45f 42f
12:50 14.5ft 11s 8s 27 40 mph 1015.5mb 45f 41f
11:50 15.5ft 11s 8s 27 34 mph 1014.9mb 45f 41f
10:50 15.5ft 11s 8s 25 31 mph 1014.5mb 45f 41f
9:50 15.5ft 11s 8s 27 31 mph 1014.1mb 45f 40f
8:50 15.5ft 11s 8s 31 36 mph 1013.5mb 45f 41f
7:50 16ft 11s 8s 31 43 mph 1013mb 45f 41f
6:50 16ft 11s 8s 29 36 mph 1012.6mb 45f 42f
5:50 15.5ft 10s 8s 27 34 mph 1011.9mb 45f 42f
4:50 15.5ft 10s 8s 31 40 mph 1011.5mb 45f 39f
3:50 15ft 11s 8s 29 36 mph 1011mb 45f 42f
2:50 15ft 9s 7s 27 34 mph 1010.5mb 45f 41f
1:50 12ft 9s 7s 29 38 mph 1009.9mb 45f 40f
12:50 13ft 11s 7s 27 31 mph 1009.8mb 45f 39f
Di 10/21 11:50 15ft 10s 8s 29 36 mph 1009.3mb 45f 40f
10:50 14ft 10s 7s 36 45 mph 1008.9mb 45f 39f
9:50 13ft 10s 7s 31 43 mph 1008.8mb 45f 41f
8:50 13ft 10s 7s 31 36 mph 1008.6mb 45f 41f
7:50 13.5ft 10s 7s 34 43 mph 1008.2mb 45f 39f
6:50 12ft 10s 7s 27 34 mph 1008.2mb 45f 40f
5:50 12.5ft 10s 7s 22 29 mph 1008.2mb 45f 38f
4:50 13ft 10s 7s 29 38 mph 1007.8mb 45f 37f
3:50 13ft 10s 7s 25 29 mph 1007.7mb 45f 38f
2:50 14ft 10s 8s 25 31 mph 1007.3mb 45f 38f
1:50 12ft 10s 7s 25 31 mph 1007mb 45f 40f
12:50 15ft 11s 8s 27 34 mph 1006.9mb 45f 40f
11:50 14ft 11s 8s 22 29 mph 1006.9mb 45f 39f
10:50 14ft 11s 8s 27 34 mph 1006.6mb 45f 38f
9:50 14ft 10s 8s 27 34 mph 1006mb 45f 41f
8:50 15ft 11s 8s 22 29 mph 1006.1mb 45f 39f
7:50 14ft 10s 8s 29 34 mph 1005.1mb 45f 41f
6:50 14ft 11s 7s 29 36 mph 1004.5mb 45f 41f
5:50 15.5ft 10s 8s 29 36 mph 1004mb 45f 41f
4:50 14ft 11s 7s 29 38 mph 1003.7mb 45f 40f
3:50 15ft 10s 8s 31 38 mph 1002.7mb 45f 40f
2:50 14ft 10s 7s 34 43 mph 1002.4mb 45f 40f
1:50 14ft 11s 7s 31 38 mph 1001.8mb 45f 40f
12:50 14.5ft 10s 8s 29 38 mph 1001.6mb 45f 41f
Mo 10/20 11:50 13ft 9s 7s 29 40 mph 1001.3mb 45f 40f
10:50 13ft 9s 7s 29 36 mph 1001mb 45f 40f
9:50 13ft 8s 7s 31 36 mph 1000.9mb 45f 40f
8:50 11ft 8s 7s 31 38 mph 1000.6mb 45f 39f
7:50 9.5ft 8s 6s 29 38 mph 1000.2mb 45f 40f
6:50 9ft 8s 6s 27 34 mph 1000.1mb 46f 38f
5:50 8ft 7s 6s 27 36 mph 999.7mb 45f 39f
4:50 7.5ft 8s 6s 27 31 mph 999.6mb 45f 40f
3:50 8ft 7s 6s 20 25 mph 999.8mb 45f 39f
2:50 6.5ft 8s 5s 27 31 mph 999.7mb 45f 40f
1:50 6ft 7s 5s 27 34 mph 999.7mb 45f 41f
12:50 5.5ft 6s 5s 18 25 mph 1000.2mb 45f 39f
11:50 5.5ft 7s 5s 22 27 mph 1000.2mb 45f 40f
10:50 5ft 6s 5s 20 25 mph 1000.3mb 45f 40f
9:50 5ft 7s 5s 20 25 mph 1000.4mb 45f 40f
8:50 5.5ft 8s 5s 18 22 mph 1000.4mb 45f 39f
7:50 5ft 7s 5s 20 25 mph 1000.1mb 45f 40f
6:50 5ft 7s 5s 16 20 mph 1000.2mb 45f 40f
5:50 4.5ft 8s 5s 18 22 mph 999.9mb 45f 40f
3:50 5ft 6s 5s 18 22 mph 999.6mb 45f 40f
2:50 5ft 8s 5s 22 27 mph 999.3mb 45f 38f
1:50 5ft 7s 5s 18 22 mph 999.2mb 45f 40f
12:50 5ft 6s 5s 20 22 mph 999.2mb 45f 41f
So 10/19 11:50 5ft 8s 5s 20 25 mph 999.5mb 45f 41f
10:50 5.5ft 6s 5s 20 22 mph 999.8mb 46f 42f
9:50 5.5ft 5s 5s 20 25 mph 1000.3mb 46f 41f
8:50 6ft 8s 5s 20 25 mph 1000.6mb 46f 41f
7:50 5.5ft 8s 5s 22 27 mph 1000.7mb 46f 42f
6:50 5.5ft 8s 5s 22 27 mph 1001.1mb 46f 41f
5:50 5.5ft 8s 5s 20 25 mph 1001.6mb 46f 42f
4:50 5.5ft 8s 5s 18 22 mph 1002.2mb 46f 42f
3:50 5.5ft 8s 5s 20 22 mph 1002.7mb 46f 42f
2:50 5.5ft 8s 6s 20 25 mph 1003.4mb 46f 42f
1:50 6ft 9s 6s 20 22 mph 1004.5mb 46f 42f
12:50 6ft 9s 6s 18 22 mph 1005.4mb 45f 42f
11:50 6ft 8s 6s 18 22 mph 1006.2mb 45f 42f
10:50 6ft 9s 7s 18 20 mph 1007mb 45f 42f
9:50 7ft 8s 7s 13 18 mph 1008.3mb 45f 42f
8:50 7ft 8s 7s 13 18 mph 1009.4mb 45f 42f
7:50 7ft 9s 7s 11 16 mph 1010.3mb 45f 42f
6:50 7.5ft 8s 7s 9 13 mph 1011mb 45f 42f
5:50 7ft 9s 7s 9 11 mph 1011.2mb 45f 42f
4:50 8ft 9s 7s 7 9 mph 1011.7mb 45f 42f
3:50 7.5ft 9s 7s 2 4 mph 1012.5mb 45f 42f
2:50 8.5ft 9s 7s  -  2 mph 1012.7mb 45f 42f